www.pogodaiklimat.ru

Погода и климат >> Архив погоды >> Индонезия >> Сурабая Геданган


ПОГОДА в Сурабая Геданган

  • Прогноз погоды в Сурабая Геданган
  • Монитор погоды в Сурабая Геданган

АРХИВ ПОГОДЫ в Сурабая Геданган

Время (UTC), дата Ветер
(напр.,м/с)
 
Видим.   Явления Облачность Т
(С)
Тd
(С)
f
(%)
Тe
(С)
Тes
(С)
Комфортность P
(гПа)
Po
(гПа)
Тmin
(С)
Tmax
(С)
R
(мм)
R24
(мм)
S
(см)
09 15.02 В 2 12 км 4/3 600 м
[Cu med, cong Ci fib]
+31.6 +24.3 65 +44 +46 опасность
перегрева
1009.7 1009.4
12 15.02 СВ 1 8000 м {гроза, дождь} 8/4 600 м
[Cu hum As trans Ci fib]
+29.8 +25.5 78 +44 +44 опасность
перегрева
1012.2 1011.8 +33.0 0.0
15 15.02 ЮВ 2 6000 м слаб. ливневой дождь, в посл. час гроза 10/6 540 м
[Cu med, cong As op]
+27.4 +25.2 88 +40 +40 очень
душно
1014.8 1014.4 1
18 15.02 Ю 2 8000 м {гроза, дождь} 6/4 600 м
[Cu hum Ci fib]
+26.6 +24.4 88 +37 +37 очень
душно
1013.2 1012.9 0.4
21 15.02 Ю 2 8000 м 4/3 600 м
[Cu hum Ci fib]
+25.9 +24.0 89 +36 +36 очень
душно
1012.3 1011.9
00 16.02 ЮЗ 2 9000 м 5/0
[Ci fib]
+25.9 +24.1 90 +36 +39 очень
душно
1012.7 1012.4 +25.4 1
03 16.02 С 2 11 км 6/4 600 м
[Cu med, cong Ac trans Ci fib]
+31.3 +24.3 66 +43 +54 опасность
перегрева
1013.6 1013.3
06 16.02 С 2 12 км 6/4 600 м
[Cu med, cong Ac trans Ci fib]
+34.0 +25.5 61 +48 +58 опасность
перегрева
1011.1 1010.7
09 16.02 штиль 0 12 км 5/3 540 м
[Cb cap Ac trans Ci fib]
+32.3 +25.6 68 +47 +50 опасность
перегрева
1009.1 1008.8
12 16.02 СВ 1 8000 м 4/0
[Ac lent Ci fib]
+29.6 +25.7 80 +44 +44 опасность
перегрева
1012.1 1011.7 +34.4
15 16.02 ЮЗ 1 8000 м 3/3 600 м
[Cu hum]
+28.6 +24.4 78 +40 +40 очень
душно
1013.8 1013.5
18 16.02 Ю 1 8000 м 3/0
[]
+27.5 +24.5 84 +39 +39 очень
душно
1012.6 1012.4
21 16.02 штиль 0 8000 м ясно +26.1 +23.8 87 +36 +36 очень
душно
1011.9 1011.6
00 17.02 СЗ 1 9000 м 4/3 600 м
[Cu hum Ac trans Ci fib]
+26.5 +24.0 86 +37 +39 очень
душно
1013.3 1012.9 +25.7
03 17.02 СЗ 4 10 км 4/4 600 м
[Cu med, cong Ci fib]
+31.5 +24.6 67 +44 +53 опасность
перегрева
1013.1 1012.8
06 17.02 СЗ 3 11 км 4/3 600 м
[Cu med, cong Ci fib]
+34.9 +23.8 53 +46 +57 опасность
перегрева
1010.1 1009.8
09 17.02 СВ 3 10 км 9/3 600 м
[Cu med, cong As trans Ci fib]
+32.2 +23.8 61 +44 +45 опасность
перегрева
1008.3 1008.0
12 17.02 СВ 2 10 км 8/0
[As op Ci fib]
+30.0 +24.6 73 +43 +43 опасность
перегрева
1010.7 1010.4
15 17.02 ЮЗ 1 10 км 6/3 600 м
[Cu hum Ac trans Ci fib]
+29.2 +25.2 79 +42 +42 опасность
перегрева
1013.0 1012.6
18 17.02 СЗ 2 9000 м 8/4 600 м
[Cu hum As trans Ci fib]
+28.0 +24.7 82 +40 +40 очень
душно
1011.6 1011.2
21 17.02 штиль 0 9000 м в посл. час дождь 8/3 600 м
[Cu hum As trans Ci fib]
+27.0 +24.0 84 +37 +37 очень
душно
1011.2 1010.8 0.0
00 18.02 Ю 2 10 км в посл. час дождь 9/3 600 м
[Sc diur, vesp As op Ci fib]
+27.2 +24.8 87 +39 +41 очень
душно
1012.5 1012.1 +26.2 0.3 0.3
03 18.02 В 1 10 км 6/3 600 м
[Cu hum As trans Ci fib]
+31.2 +24.4 67 +43 +56 опасность
перегрева
1013.0 1012.7
06 18.02 С 2 11 км 6/4 600 м
[Cu med, cong As trans Ci fib]
+34.4 +23.8 54 +46 +55 опасность
перегрева
1010.6 1010.2
09 18.02 В 2 9000 м осадки на расстоянии 8/5 600 м
[Cb cap As op Ci fib]
+31.6 +25.6 71 +47 +48 опасность
перегрева
1009.8 1009.4
12 18.02 Ю 2 9000 м 6/4 600 м
[Cu med, cong As op Ci fib]
+29.9 +24.6 73 +42 +42 опасность
перегрева
1011.8 1011.5 +34.8
15 18.02 З 1 8000 м зарница 10/5 600 м
[Cb cap As op]
+27.8 +24.1 80 +39 +39 очень
душно
1013.7 1013.4
18 18.02 штиль 0 8000 м 8/4 600 м
[Cu med, cong As op Ci fib]
+26.9 +23.5 82 +37 +37 очень
душно
1012.0 1011.6
21 18.02 штиль 0 7000 м 8/4 600 м
[Cu hum As op Ci fib]
+26.5 +23.5 84 +36 +36 очень
душно
1011.1 1010.7
00 19.02 ЮЗ 2 9000 м 4/0
[Ci fib]
+26.2 +23.7 86 +36 +39 очень
душно
1012.5 1012.1 +25.9
03 19.02 СЗ 3 10 км 6/4 600 м
[Cu med, cong As trans Ci fib]
+31.6 +25.2 69 +46 +54 опасность
перегрева
1013.7 1013.4
06 19.02 штиль 0 10 км 8/4 600 м
[Cu hum As op Ci fib]
+30.7 +25.3 73 +45 +55 опасность
перегрева
1011.8 1011.4
09 19.02 С 2 10 км 9/4 600 м
[Cu hum As op Ci fib]
+30.3 +25.3 75 +44 +45 опасность
перегрева
1010.4 1010.0
12 19.02 ЮВ 2 9000 м 8/4 600 м
[Cu hum As trans Ci fib]
+29.4 +25.5 80 +43 +43 опасность
перегрева
1012.7 1012.3 +33.0
15 19.02 Ю 2 9000 м 8/3 600 м
[Cu hum Ac trans Ci fib]
+28.1 +25.4 85 +41 +41 опасность
перегрева
1014.5 1014.1
18 19.02 Ю 3 8000 м 5/1 600 м
[Cu hum Ac trans Ci fib]
+27.5 +25.3 88 +40 +40 очень
душно
1013.4 1013.0
21 19.02 ЮВ 2 8000 м 4/0
[Ac trans Ci fib]
+26.6 +24.7 89 +38 +38 очень
душно
1011.7 1011.4
00 20.02 Ю 2 8000 м 9/4 600 м
[Cu hum Ac trans]
+26.8 +24.9 89 +38 +39 очень
душно
1013.2 1012.9 +26.0
03 20.02 В 2 12 км 6/5
[Cb cap Ac trans]
+31.5 +25.5 71 +46 +55 опасность
перегрева
1014.1 1013.7
06 20.02 С 3 10 км в посл. час дождь 8/4
[Cb cap Ac lent Ci fib]
+29.5 +24.9 76 +42 +49 опасность
перегрева
1011.9 1011.5 2
09 20.02 СВ 2 10 км 6/4 600 м
[Cu med, cong As trans Ci fib]
+30.4 +25.3 74 +44 +46 опасность
перегрева
1010.9 1010.6
12 20.02 Ю 2 9000 м 10/4 600 м
[Cu hum As trans Ci fib]
+29.5 +25.3 78 +43 +43 опасность
перегрева
1012.7 1012.4 +31.8
15 20.02 ЮВ 2 9000 м 6/3 600 м
[Cu hum As trans Ci fib]
+28.4 +25.2 83 +41 +41 опасность
перегрева
1014.2 1013.9
18 20.02 ЮВ 2 9000 м 4/3 600 м
[Cu hum Ci fib]
+27.0 +24.6 87 +38 +38 очень
душно
1012.1 1011.7
21 20.02 штиль 0 9000 м 4/3 600 м
[Cu hum Ci fib]
+26.4 +24.2 88 +37 +37 очень
душно
1012.1 1011.8
00 21.02 ЮВ 2 10 км 6/3 600 м
[Cu hum As trans Ci fib]
+26.0 +24.1 89 +36 +38 очень
душно
1013.9 1013.5 +25.5 2
03 21.02 ЮВ 2 10 км 6/4 600 м
[Cu med, cong As trans Ci fib]
+30.0 +25.2 76 +44 +53 опасность
перегрева
1013.9 1013.4
06 21.02 ЮВ 3 10 км 10/5 600 м
[Cu med, cong As op Ci sp]
+31.4 +24.8 68 +45 +49 опасность
перегрева
1011.6 1011.2
09 21.02 СВ 2 12 км 9/4 600 м
[Cu med, cong Ac As Ci fib]
+30.7 +25.5 74 +45 +46 опасность
перегрева
1009.8 1009.4
12 21.02 С 2 8000 м 6/5 700 м
[Sc Ac trans]
+29.4 +24.7 76 +42 +42 опасность
перегрева
1011.7 1011.3 +31.8
15 21.02 В 2 8000 м зарница {гроза} 6/4
[Cb cap Ac As]
+28.4 +25.2 83 +41 +41 опасность
перегрева
1013.5 1013.1
18 21.02 штиль 0 8000 м {гроза} 6/4 600 м
[Cu med, cong Ac trans]
+27.8 +25.1 85 +40 +40 очень
душно
1012.6 1012.2
21 21.02 Ю 1 8000 м 1/1 600 м
[Cu med, cong]
+27.1 +24.7 87 +39 +39 очень
душно
1010.9 1010.6
00 22.02 ЮВ 2 9000 м 1/0
[Ci fib]
+26.8 +24.9 89 +38 +42 очень
душно
1012.5 1012.1 +25.8
03 22.02 СВ 3 11 км 4/4 600 м
[Cu med, cong Ci fib]
+30.8 +25.2 72 +45 +55 опасность
перегрева
1012.8 1012.5
06 22.02 СВ 4 10 км 9/5 600 м
[Cb cap As op Ci fib]
+31.0 +25.5 73 +46 +49 опасность
перегрева
1010.2 1009.9

 

Местоположение метеостанции Сурабая Геданган (Индонезия): широта -7.22 долгота 113.71 высота над уровнем моря 113 м.

В архиве по умолчанию представлена погода в Сурабая Геданган за последнюю неделю. Архивные данные за месяц целиком и за предыдущие месяцы, начиная с января 2011 года, Вы можете получить, выбрав интересующий диапазон дат из раскрывающегося списка и нажав кнопку "Ввод!".


*Определитесь, кто Вы:
робот инопланетянин человек

Внимание! Время в таблицах - всемирное. Для получения местного времени необходимо прибавить поправку, которая равна 7 ч.

Смотрите также архив погоды в соседних городах и на ближайших метеорологических станциях:

Погода в Калиянджете (Индонезия) (33 км)
Погода в Аэропорту Джуанда (Индонезия) (106 км)
Погода в Сурабая Перак (Индонезия) (110 км)
Погода в Банюванги (Индонезия) (134 км)
Погода в Сангкапуре (Индонезия) (194 км)
Погода в Денпасаре (Индонезия) (233 км)
Погода в Матараме (Индонезия) (297 км)
Погода в Семаранге (Индонезия) (365 км)
Погода в Аэропорту Ахмад Яни (Индонезия) (369 км)
Погода в Сумбава-Бесаре (Индонезия) (431 км)

Пояснения к столбцам:

Ветер - указаны скорость ветра в м/с - средняя за 10 мин, порывы в срок и между сроками (в фигурных скобках) и направление, откуда дует ветер: С - северный, СВ - северо-восточный, В - восточный, ЮВ - юго-восточный, Ю - южный, ЮЗ - юго-западный, З - западный, СЗ - северо-западный.
Видимость - горизонтальная дальность видимости в метрах или километрах. При видимости от 1 до 10 км при отсутствии осадков обычно наблюдается дымка, при ухудшении видимости до 1 км и менее - туман. В сухую погоду видимость может ухудшаться дымом, пылью или мглою.
Явления - указаны атмосферные явления, наблюдавшиеся в срок или в последний час перед сроком; фигурными скобками обозначены явления, наблюдавшиеся между сроками (за 1-3 часа до срока); квадратными скобками обозначены град или гололедные отложения с указанием их диаметра в мм.
Облачность - указаны через наклонную черту общая и нижняя облачность в баллах и высота нижней границы облаков в метрах; квадратными скобками обозначены формы облаков: Ci - перистые, Cs - перисто-слоистые, Cc - перисто-кучевые, Ac - высококучевые, As - высокослоистые, Sc - слоисто-кучевые, Ns - слоисто-дождевые, Cu - кучевые, Cb - кучево-дождевые. Подробнее классификацию облаков см. в Атласе облаков (PDF).
T - Температура воздуха - температура, измеренная на высоте 2 м над землей.
Td - Температура точки росы - температура, при понижении до которой содержащийся в воздухе водяной пар достигнет насыщения.
f - Относительная влажность воздуха - влажноcть воздуха, измеренная на высоте 2 м над землей.
Te - Эффективная температура - температура, которую ощущает одетый по сезону человек в тени. Характеристика душности погоды. При расчете учитывается влияние влажности воздуха и скорости ветра на теплоощущения человека.
Tes - Эффективная температура на солнце - температура, которую ощущает человек, с поправкой на солнечный нагрев. Характеристика знойности погоды. Зависит от высоты солнца над горизонтом, облачности и скорости ветра. Ночью, в пасмурную погоду, а также при ветре 12 м/с и более поправка равна нулю.
P - Атмосферное давление - приведенное к уровню моря атмосферное давление.
Po - Атмосферное давление - измеренное на уровне метеостанции атмосферное давление.
Tmin - Минимальная температура - минимум температуры воздуха на высоте 2 м над землей.
Tmax - Максимальная температура - максимум температуры воздуха на высоте 2 м над землей.
R - Количество осадков - Количество выпавших осадков за период времени, мм. При наведении курсора мыши на число - период времени, за который выпало указанное количество осадков.
R24 - Количество осадков - Количество выпавших осадков за 24 часа, мм.
S - Снежный покров - Высота снежного покрова, см. При наведении курсора мыши на число - состояние снежного покрова и степень покрытия местности в баллах.